User: anonymous   Login
Location: ????????
(55.6189°N, 38.3031°E)
Time: 20:09:58
(UTC+00:00)
Language:

Cosmos 1833 Rocket - Orbit

View from above orbital plane
View from above orbital plane
View from above satellite
View from above satellite

Ground track
Ground track

The orbit data is extracted from the following two-line orbital elements,

1 17590U 87027B   20020.22091641 +.00000065 +00000-0 +56489-4 0  9992
2 17590 071.0038 315.6781 0007173 289.3806 070.6541 14.16778408698022
Epoch (UTC): 20 January 2020 05:18:07
Eccentricity: 0.0007173
inclination: 71.0038°
perigee height: 831 km
apogee height: 841 km
right ascension of ascending node: 315.6781°
argument of perigee: 289.3806°
revolutions per day: 14.16778408
mean anomaly at epoch: 70.6541°
orbit number at epoch: 69802

The dashed part of the orbit path shows where the satellite is in the earth's shadow,  

DLR